Location: Cheching
(60.0667°N, 164.2167°W)
Time: 03:20:57
(UTC+00:00)

FO-99 - Pass Details

Date: 25 January 2021
Orbit: 473 x 506 km, 97.2° (Epoch: 03 March)

Event Time Altitude Azimuth Distance (km) Brightness Sun altitude
Exits shadow 06:24:20 12° 351° (N) 1,586 ? -25.6°
Drops below altitude 10° 06:24:36 10° 351° (N) 1,699 ? -25.7°
Sets 06:26:42 0° 347° (NNW) 2,580 ? -25.9°
